PKNJT WIII-WIMM

Flight info

Callsign PKNJT
Flight time 1h 13m
Altitude 36000
Route GOMEL T10 AKPER
Aircraft MD11/H-SDE1E2E3FGHIJ2J3J4J5M1RWXY/LB1D1

Departure

Time 2026-04-24 08:49
Airport Soekarno-Hatta International Airport (WIII)

Arrival

Time 2026-04-24 10:02
Airport Kualanamu International Airport (WIMM)
Time Latitude Longitude Altitude Speed Heading
2026-04-24 08:43 -6.12232 106.64762 46 ft 0 kts 303°
2026-04-24 08:45 -6.12231 106.64761 43 ft 2 kts 303°
2026-04-24 08:45 -6.12214 106.64741 44 ft 5 kts 318°
2026-04-24 08:45 -6.12179 106.64725 46 ft 7 kts 349°
2026-04-24 08:45 -6.12112 106.64716 46 ft 13 kts 347°
2026-04-24 08:46 -6.12014 106.64664 43 ft 15 kts 315°
2026-04-24 08:46 -6.12023 106.64560 46 ft 20 kts 251°
2026-04-24 08:46 -6.12079 106.64399 44 ft 20 kts 249°
2026-04-24 08:46 -6.12148 106.64255 46 ft 28 kts 244°
2026-04-24 08:47 -6.12248 106.64051 46 ft 37 kts 245°
2026-04-24 08:47 -6.12252 106.63923 46 ft 0 kts 304°
2026-04-24 08:47 -6.12250 106.63920 46 ft 3 kts 307°
2026-04-24 08:48 -6.12201 106.63890 48 ft 11 kts 340°
2026-04-24 08:48 -6.12153 106.63895 49 ft 11 kts 13°
2026-04-24 08:48 -6.12067 106.63960 48 ft 21 kts 65°
2026-04-24 08:48 -6.12025 106.64075 47 ft 21 kts 70°
2026-04-24 08:49 -6.11915 106.64359 47 ft 73 kts 69°
2026-04-24 08:49 -6.11632 106.65054 50 ft 144 kts 68°
2026-04-24 08:49 -6.11209 106.66174 197 ft 188 kts 68°
2026-04-24 08:49 -6.10728 106.67370 875 ft 193 kts 65°
2026-04-24 08:50 -6.10236 106.68448 1875 ft 184 kts 63°
2026-04-24 08:50 -6.09655 106.69614 2796 ft 192 kts 61°
2026-04-24 08:50 -6.08915 106.70776 3611 ft 207 kts 55°
2026-04-24 08:50 -6.07909 106.71934 4116 ft 222 kts 49°
2026-04-24 08:51 -6.06784 106.72842 5309 ft 214 kts 30°
2026-04-24 08:51 -6.05256 106.73387 5508 ft 249 kts 18°
2026-04-24 08:51 -6.03525 106.73914 5730 ft 270 kts 21°
2026-04-24 08:51 -6.01751 106.74558 6368 ft 272 kts 22°
2026-04-24 08:52 -5.99906 106.75053 6921 ft 277 kts 11°
2026-04-24 08:52 -5.97967 106.75003 7493 ft 284 kts 351°
2026-04-24 08:52 -5.96162 106.74170 8046 ft 291 kts 324°
2026-04-24 08:52 -5.94854 106.72602 8581 ft 297 kts 302°
2026-04-24 08:53 -5.93917 106.70732 9081 ft 301 kts 296°
2026-04-24 08:53 -5.93034 106.68819 9589 ft 303 kts 302°
2026-04-24 08:53 -5.91777 106.67160 9953 ft 307 kts 313°
2026-04-24 08:53 -5.90262 106.65525 10067 ft 322 kts 315°
2026-04-24 08:54 -5.88711 106.63883 10297 ft 335 kts 315°
2026-04-24 08:54 -5.87065 106.62103 10481 ft 364 kts 314°
2026-04-24 08:54 -5.85330 106.60171 11065 ft 375 kts 313°
2026-04-24 08:54 -5.83787 106.58417 11833 ft 379 kts 313°
2026-04-24 08:55 -5.82150 106.56532 12618 ft 385 kts 312°
2026-04-24 08:55 -5.80398 106.54498 13432 ft 389 kts 312°
2026-04-24 08:55 -5.78623 106.52429 14159 ft 393 kts 312°
2026-04-24 08:55 -5.76828 106.50332 14861 ft 397 kts 312°
2026-04-24 08:56 -5.75020 106.48219 15556 ft 401 kts 312°
2026-04-24 08:56 -5.73194 106.46085 16230 ft 405 kts 312°
2026-04-24 08:56 -5.71353 106.43934 16895 ft 409 kts 312°
2026-04-24 08:56 -5.69492 106.41759 17544 ft 412 kts 312°
2026-04-24 08:57 -5.67611 106.39562 18161 ft 416 kts 312°
2026-04-24 08:57 -5.65720 106.37353 18696 ft 420 kts 312°
2026-04-24 08:57 -5.63806 106.35119 19211 ft 424 kts 312°
2026-04-24 08:57 -5.61872 106.32860 19709 ft 428 kts 311°
2026-04-24 08:58 -5.59925 106.30586 20190 ft 432 kts 312°
2026-04-24 08:58 -5.57958 106.28291 20692 ft 435 kts 312°
2026-04-24 08:58 -5.55979 106.25980 21178 ft 439 kts 312°
2026-04-24 08:58 -5.53980 106.23647 21691 ft 443 kts 312°
2026-04-24 08:59 -5.51964 106.21294 22159 ft 447 kts 312°
2026-04-24 08:59 -5.49924 106.18915 22685 ft 451 kts 311°
2026-04-24 08:59 -5.47871 106.16520 23254 ft 454 kts 311°
2026-04-24 08:59 -5.45799 106.14102 23697 ft 459 kts 311°
2026-04-24 09:00 -5.43713 106.11669 24165 ft 462 kts 311°
2026-04-24 09:00 -5.41617 106.09224 24719 ft 463 kts 311°
2026-04-24 09:00 -5.39505 106.06762 25214 ft 467 kts 311°
2026-04-24 09:00 -5.37375 106.04280 25632 ft 472 kts 310°
2026-04-24 09:01 -5.35224 106.01774 26079 ft 476 kts 310°
2026-04-24 09:01 -5.33066 105.99260 26638 ft 477 kts 310°
2026-04-24 09:01 -5.30880 105.96713 26981 ft 484 kts 310°
2026-04-24 09:01 -5.28678 105.94147 27448 ft 487 kts 310°
2026-04-24 09:02 -5.26466 105.91569 28012 ft 488 kts 310°
2026-04-24 09:02 -5.24236 105.88971 28406 ft 492 kts 310°
2026-04-24 09:02 -5.21986 105.86387 28894 ft 495 kts 313°
2026-04-24 09:02 -5.19481 105.84051 29316 ft 499 kts 320°
2026-04-24 09:03 -5.16697 105.81895 29770 ft 502 kts 323°
2026-04-24 09:03 -5.13828 105.79862 30088 ft 506 kts 324°
2026-04-24 09:03 -5.10931 105.77865 30431 ft 508 kts 325°
2026-04-24 09:03 -5.08051 105.75870 30795 ft 509 kts 325°
2026-04-24 09:04 -5.05114 105.73808 31233 ft 507 kts 324°
2026-04-24 09:04 -5.02276 105.71789 31661 ft 506 kts 324°
2026-04-24 09:04 -4.99411 105.69734 32073 ft 505 kts 324°
2026-04-24 09:04 -4.96563 105.67681 32413 ft 506 kts 324°
2026-04-24 09:05 -4.93717 105.65627 32895 ft 503 kts 324°
2026-04-24 09:05 -4.90873 105.63574 33365 ft 500 kts 324°
2026-04-24 09:05 -4.88054 105.61541 33694 ft 501 kts 324°
2026-04-24 09:05 -4.85224 105.59501 34031 ft 500 kts 324°
2026-04-24 09:06 -4.82398 105.57465 34311 ft 500 kts 324°
2026-04-24 09:06 -4.79584 105.55438 34660 ft 497 kts 324°
2026-04-24 09:06 -4.76776 105.53416 35000 ft 495 kts 324°
2026-04-24 09:06 -4.73985 105.51407 35345 ft 493 kts 324°
2026-04-24 09:07 -4.71213 105.49411 35671 ft 491 kts 324°
2026-04-24 09:07 -4.62875 105.43409 35797 ft 491 kts 324°
2026-04-24 09:08 -4.57330 105.39419 35798 ft 491 kts 324°
2026-04-24 09:08 -4.51774 105.35422 35798 ft 491 kts 324°
2026-04-24 09:09 -4.46220 105.31429 35803 ft 491 kts 324°
2026-04-24 09:09 -4.40670 105.27439 35799 ft 492 kts 324°
2026-04-24 09:10 -4.35112 105.23442 35797 ft 492 kts 324°
2026-04-24 09:10 -4.29538 105.19435 35799 ft 494 kts 324°
2026-04-24 09:11 -4.23962 105.15426 35800 ft 493 kts 324°
2026-04-24 09:11 -4.18388 105.11420 35799 ft 493 kts 323°
2026-04-24 09:12 -4.12809 105.07411 35798 ft 494 kts 324°
2026-04-24 09:12 -4.07266 105.03429 35799 ft 492 kts 324°
2026-04-24 09:13 -4.01776 104.99316 35799 ft 493 kts 319°
2026-04-24 09:13 -3.96713 104.94694 35796 ft 492 kts 316°
2026-04-24 09:14 -3.91774 104.89933 35798 ft 492 kts 316°
2026-04-24 09:14 -3.86815 104.85202 35800 ft 493 kts 316°
2026-04-24 09:15 -3.81822 104.80489 35802 ft 494 kts 316°
2026-04-24 09:15 -3.76814 104.75777 35798 ft 493 kts 316°
2026-04-24 09:16 -3.71833 104.71088 35800 ft 493 kts 316°
2026-04-24 09:16 -3.66837 104.66386 35807 ft 493 kts 317°
2026-04-24 09:17 -3.61830 104.61675 35808 ft 495 kts 317°
2026-04-24 09:17 -3.56823 104.56963 35811 ft 494 kts 317°
2026-04-24 09:18 -3.51809 104.52246 35802 ft 494 kts 317°
2026-04-24 09:18 -3.46792 104.47526 35812 ft 495 kts 317°
2026-04-24 09:19 -3.44284 104.45167 35978 ft 495 kts 317°
2026-04-24 09:19 -3.34765 104.36218 36927 ft 492 kts 317°
2026-04-24 09:19 -3.24814 104.26864 37827 ft 489 kts 317°
2026-04-24 09:19 -3.14897 104.17542 37819 ft 490 kts 317°
2026-04-24 09:20 -2.94995 103.98844 37817 ft 490 kts 316°
2026-04-24 09:20 -2.75110 103.80174 37786 ft 490 kts 316°
2026-04-24 09:21 -2.55221 103.61508 37788 ft 491 kts 316°
2026-04-24 09:21 -2.35285 103.42804 37821 ft 490 kts 316°
2026-04-24 09:22 -2.15350 103.24175 37818 ft 491 kts 317°
2026-04-24 09:22 -1.95416 103.05559 37782 ft 490 kts 316°
2026-04-24 09:23 -1.75486 102.86953 37788 ft 492 kts 317°
2026-04-24 09:23 -1.55528 102.68329 37808 ft 490 kts 317°
2026-04-24 09:24 -1.35580 102.49696 37793 ft 492 kts 317°
2026-04-24 09:24 -1.15618 102.31054 37770 ft 491 kts 317°
2026-04-24 09:25 -0.95731 102.12487 37783 ft 490 kts 317°
2026-04-24 09:25 -0.75822 101.93903 37772 ft 490 kts 317°
2026-04-24 09:26 -0.63793 101.82675 37783 ft 490 kts 317°
2026-04-24 09:26 -0.61196 101.80252 37764 ft 490 kts 317°
2026-04-24 09:27 -0.57749 101.77034 37763 ft 490 kts 317°
2026-04-24 09:27 -0.52771 101.72387 37763 ft 490 kts 317°
2026-04-24 09:28 -0.47796 101.67744 37762 ft 490 kts 317°
2026-04-24 09:28 -0.42812 101.63093 37759 ft 489 kts 317°
2026-04-24 09:29 -0.37830 101.58444 37763 ft 491 kts 317°
2026-04-24 09:29 -0.32851 101.53797 37760 ft 489 kts 317°
2026-04-24 09:30 -0.27916 101.49192 37774 ft 488 kts 317°
2026-04-24 09:30 -0.22950 101.44558 37758 ft 489 kts 317°
2026-04-24 09:31 -0.17987 101.39927 37764 ft 489 kts 317°
2026-04-24 09:31 -0.13016 101.35287 37751 ft 490 kts 317°
2026-04-24 09:32 -0.08046 101.30650 37747 ft 489 kts 317°
2026-04-24 09:32 -0.03887 101.26769 37744 ft 488 kts 316°
2026-04-24 09:33 0.01065 101.22148 37741 ft 488 kts 316°
2026-04-24 09:33 0.15739 101.08454 38044 ft 485 kts 317°
2026-04-24 09:33 0.23857 101.00878 37685 ft 478 kts 317°
2026-04-24 09:34 0.40771 100.85094 37737 ft 489 kts 317°
2026-04-24 09:34 0.60418 100.66757 37770 ft 489 kts 316°
2026-04-24 09:35 0.79274 100.47637 37777 ft 490 kts 316°
2026-04-24 09:35 0.99145 100.29003 37755 ft 490 kts 317°
2026-04-24 09:36 1.19028 100.10313 37771 ft 489 kts 317°
2026-04-24 09:36 1.38839 99.91688 37770 ft 489 kts 317°
2026-04-24 09:37 1.58671 99.73037 37789 ft 488 kts 316°
2026-04-24 09:37 1.77229 99.57517 37889 ft 487 kts 333°
2026-04-24 09:38 1.80249 99.55996 37724 ft 482 kts 334°
2026-04-24 09:38 1.83260 99.54512 36441 ft 486 kts 334°
2026-04-24 09:38 1.86304 99.53000 35280 ft 489 kts 333°
2026-04-24 09:38 1.89351 99.51459 34091 ft 493 kts 333°
2026-04-24 09:39 1.92406 99.49888 32741 ft 496 kts 333°
2026-04-24 09:39 1.95486 99.48288 31349 ft 500 kts 332°
2026-04-24 09:39 1.98577 99.46673 30036 ft 503 kts 332°
2026-04-24 09:39 2.01682 99.45046 28324 ft 508 kts 332°
2026-04-24 09:40 2.04819 99.43403 26722 ft 512 kts 332°
2026-04-24 09:40 2.07938 99.41770 25934 ft 500 kts 332°
2026-04-24 09:40 2.10976 99.40181 25534 ft 490 kts 332°
2026-04-24 09:40 2.13996 99.38602 25201 ft 490 kts 332°
2026-04-24 09:41 2.17034 99.37014 24993 ft 495 kts 332°
2026-04-24 09:41 2.20084 99.35420 24902 ft 496 kts 332°
2026-04-24 09:41 2.23151 99.33817 24883 ft 496 kts 332°
2026-04-24 09:41 2.26203 99.32221 24867 ft 496 kts 332°
2026-04-24 09:42 2.29250 99.30628 24867 ft 495 kts 332°
2026-04-24 09:42 2.32320 99.29023 24372 ft 497 kts 332°
2026-04-24 09:42 2.35353 99.27437 23730 ft 490 kts 332°
2026-04-24 09:42 2.38368 99.25861 23176 ft 486 kts 332°
2026-04-24 09:43 2.41359 99.24320 22855 ft 482 kts 335°
2026-04-24 09:43 2.44495 99.23153 22821 ft 481 kts 344°
2026-04-24 09:43 2.47745 99.22348 22754 ft 481 kts 349°
2026-04-24 09:43 2.50988 99.21723 22694 ft 480 kts 350°
2026-04-24 09:44 2.54275 99.21145 22625 ft 480 kts 350°
2026-04-24 09:44 2.57605 99.20555 22542 ft 479 kts 350°
2026-04-24 09:44 2.60836 99.19959 22476 ft 478 kts 349°
2026-04-24 09:44 2.64148 99.19325 22423 ft 478 kts 349°
2026-04-24 09:45 2.67412 99.18685 22323 ft 478 kts 349°
2026-04-24 09:45 2.70626 99.18046 21602 ft 475 kts 349°
2026-04-24 09:45 2.73048 99.17562 21055 ft 472 kts 349°
2026-04-24 09:46 2.75130 99.17145 20620 ft 469 kts 349°
2026-04-24 09:46 2.78309 99.16509 19931 ft 464 kts 349°
2026-04-24 09:46 2.81460 99.15878 19262 ft 460 kts 350°
2026-04-24 09:46 2.84587 99.15254 18597 ft 456 kts 350°
2026-04-24 09:47 2.87732 99.14626 17871 ft 452 kts 350°
2026-04-24 09:47 2.90755 99.14024 17158 ft 447 kts 350°
2026-04-24 09:47 2.93785 99.13420 16480 ft 442 kts 350°
2026-04-24 09:47 2.96778 99.12725 15818 ft 424 kts 343°
2026-04-24 09:48 2.98990 99.11698 15305 ft 405 kts 328°
2026-04-24 09:48 3.01141 99.09986 14758 ft 387 kts 317°
2026-04-24 09:48 3.03021 99.08092 14208 ft 380 kts 314°
2026-04-24 09:48 3.04808 99.06176 13670 ft 375 kts 313°
2026-04-24 09:49 3.06458 99.04410 13125 ft 371 kts 314°
2026-04-24 09:49 3.08235 99.02544 12586 ft 369 kts 314°
2026-04-24 09:49 3.10021 99.00702 12194 ft 370 kts 315°
2026-04-24 09:49 3.11811 98.98879 11744 ft 365 kts 315°
2026-04-24 09:50 3.13584 98.97089 11407 ft 361 kts 315°
2026-04-24 09:50 3.14681 98.95985 11282 ft 361 kts 315°
2026-04-24 09:50 3.16819 98.93838 11147 ft 353 kts 315°
2026-04-24 09:50 3.18450 98.92201 11028 ft 338 kts 315°
2026-04-24 09:51 3.20078 98.90568 10907 ft 324 kts 315°
2026-04-24 09:51 3.21638 98.89004 10781 ft 310 kts 315°
2026-04-24 09:51 3.23122 98.87517 10558 ft 306 kts 315°
2026-04-24 09:51 3.24534 98.86103 10120 ft 305 kts 315°
2026-04-24 09:52 3.26040 98.84594 9594 ft 309 kts 315°
2026-04-24 09:52 3.27563 98.83067 9019 ft 310 kts 315°
2026-04-24 09:52 3.29079 98.81548 8475 ft 307 kts 315°
2026-04-24 09:52 3.29584 98.81041 8300 ft 306 kts 315°
2026-04-24 09:53 3.31895 98.78763 7520 ft 300 kts 316°
2026-04-24 09:53 3.33385 98.77328 7068 ft 294 kts 316°
2026-04-24 09:53 3.34848 98.75922 6641 ft 289 kts 316°
2026-04-24 09:53 3.36288 98.74538 6198 ft 283 kts 316°
2026-04-24 09:54 3.37686 98.73195 5759 ft 274 kts 316°
2026-04-24 09:54 3.39005 98.71929 5375 ft 250 kts 316°
2026-04-24 09:54 3.40191 98.70789 5009 ft 222 kts 316°
2026-04-24 09:54 3.41267 98.69807 4672 ft 198 kts 323°
2026-04-24 09:55 3.42383 98.69151 4314 ft 175 kts 340°
2026-04-24 09:55 3.43511 98.68897 4058 ft 162 kts 358°
2026-04-24 09:55 3.44619 98.68985 3977 ft 158 kts 15°
2026-04-24 09:55 3.45627 98.69382 3751 ft 155 kts 32°
2026-04-24 09:56 3.46458 98.70044 3573 ft 152 kts 44°
2026-04-24 09:56 3.47255 98.70746 3529 ft 153 kts 43°
2026-04-24 09:56 3.48050 98.71459 3506 ft 153 kts 43°
2026-04-24 09:56 3.48838 98.72180 3386 ft 155 kts 45°
2026-04-24 09:57 3.49236 98.72569 3357 ft 155 kts 47°
2026-04-24 09:57 3.49849 98.73170 3300 ft 155 kts 47°
2026-04-24 09:57 3.50259 98.73573 3208 ft 155 kts 46°
2026-04-24 09:57 3.51010 98.74319 2996 ft 154 kts 46°
2026-04-24 09:58 3.51754 98.75051 2848 ft 153 kts 46°
2026-04-24 09:58 3.52517 98.75802 2638 ft 152 kts 47°
2026-04-24 09:58 3.53156 98.76440 2479 ft 151 kts 47°
2026-04-24 09:58 3.53524 98.76805 2381 ft 150 kts 46°
2026-04-24 09:59 3.54252 98.77537 2209 ft 147 kts 48°
2026-04-24 09:59 3.54982 98.78262 1997 ft 146 kts 48°
2026-04-24 09:59 3.55704 98.78983 1834 ft 146 kts 46°
2026-04-24 09:59 3.56416 98.79693 1652 ft 144 kts 47°
2026-04-24 10:00 3.57127 98.80414 1402 ft 147 kts 46°
2026-04-24 10:00 3.57866 98.81108 1198 ft 144 kts 50°
2026-04-24 10:00 3.58542 98.81856 948 ft 143 kts 51°
2026-04-24 10:00 3.59243 98.82549 820 ft 142 kts 44°
2026-04-24 10:01 3.59955 98.83204 690 ft 140 kts 44°
2026-04-24 10:01 3.60626 98.83933 578 ft 139 kts 46°
2026-04-24 10:01 3.61317 98.84600 383 ft 137 kts 44°
2026-04-24 10:01 3.62001 98.85269 250 ft 138 kts 45°
2026-04-24 10:02 3.62667 98.85943 92 ft 136 kts 45°
2026-04-24 10:02 3.63278 98.86553 41 ft 108 kts 44°
2026-04-24 10:02 3.63754 98.87025 45 ft 85 kts 44°
2026-04-24 10:02 3.64042 98.87332 40 ft 44 kts 57°
2026-04-24 10:03 3.64113 98.87504 43 ft 14 kts 80°
2026-04-24 10:03 3.64122 98.87566 43 ft 5 kts 83°
2026-04-24 10:03 3.64126 98.87593 45 ft 4 kts 80°
2026-04-24 10:03 3.64133 98.87617 45 ft 5 kts 72°
2026-04-24 10:04 3.64146 98.87650 45 ft 9 kts 66°
2026-04-24 10:04 3.64188 98.87713 46 ft 13 kts 50°
2026-04-24 10:04 3.64242 98.87773 46 ft 9 kts 43°
2026-04-24 10:04 3.64285 98.87812 46 ft 7 kts 41°
2026-04-24 10:05 3.64311 98.87835 46 ft 6 kts 42°
2026-04-24 10:05 3.64335 98.87858 46 ft 7 kts 43°
2026-04-24 10:05 3.64377 98.87897 46 ft 11 kts 43°
2026-04-24 10:05 3.64432 98.87958 46 ft 7 kts 65°
2026-04-24 10:06 3.64434 98.87989 47 ft 1 kts 95°
2026-04-24 10:06 3.64392 98.88032 47 ft 9 kts 141°
2026-04-24 10:06 3.64325 98.88086 47 ft 16 kts 141°
2026-04-24 10:07 3.64232 98.88161 48 ft 21 kts 139°
2026-04-24 10:07 3.64150 98.88185 48 ft 14 kts 195°
2026-04-24 10:07 3.64077 98.88110 48 ft 17 kts 226°
2026-04-24 10:07 3.63987 98.88018 48 ft 18 kts 224°
2026-04-24 10:08 3.63914 98.87964 48 ft 7 kts 193°
2026-04-24 10:08 3.63875 98.87977 46 ft 6 kts 147°
2026-04-24 10:08 3.63851 98.87998 48 ft 4 kts 134°
2026-04-24 10:08 3.63829 98.88021 48 ft 5 kts 135°
2026-04-24 10:09 3.63808 98.88041 48 ft 5 kts 135°
2026-04-24 10:09 3.63772 98.88060 48 ft 7 kts 177°
2026-04-24 10:09 3.63737 98.88028 48 ft 4 kts 239°
2026-04-24 10:09 3.63726 98.88015 48 ft 3 kts 231°
2026-04-24 10:10 3.63716 98.88003 46 ft 1 kts 228°
2026-04-24 10:10 3.63713 98.87999 45 ft 1 kts 227°
2026-04-24 10:10 3.63710 98.87996 45 ft 0 kts 227°
2026-04-24 10:10 3.63715 98.88001 47 ft 0 kts 227°
2026-04-24 10:11 3.63720 98.88005 48 ft 0 kts 226°
2026-04-24 10:12 3.63645 98.88318 48 ft 0 kts 45°
2026-04-24 10:13 3.63698 98.88288 48 ft 28 kts 313°
2026-04-24 10:13 3.63702 98.88282 48 ft 0 kts 314°